[[{"header":{"parameterUnit":"m.s-1","parameterCategory":1,"la1":30.2991,"la2":30.254,"lo1":-89.0895,"lo2":-89.0444,"dy":0.0017,"dx":0.0017,"nx":28,"ny":28,"refTime":"2025-12-18T03:00:00:Z","depth":0,"parameterNumber":2,"parameterNumberName":"U-component_of_WINDS"},"data":[0,0,0,0,0,0,0,0,0,0,0,0,0,0,0,0,0,0,0,0,0,0,0,0,0,0,0,0,0,0,0,0,0,0,0,0,0,0,0,0,0,0,0,0,0,0,0,0,0,0,0,0,0,0,0,0,0,0,-0.0872,-0.0872,0,-0.087,-0.087,-0.087,-0.0866,-0.0865,-0.0865,-0.0865,-0.0864,-0.0864,-0.0864,0,0,0,0,0,0,0,0,0,0,0,0,0,-0.0872,-0.0872,-0.0872,-0.0872,-0.0872,-0.087,-0.087,-0.087,-0.0866,-0.0865,-0.0865,-0.0865,-0.0864,-0.0864,-0.0864,0,0,0,0,0,0,0,0,0,0,0,0,0,-0.0871,-0.0872,-0.0872,-0.0869,-0.0869,-0.087,-0.087,-0.087,-0.0866,-0.0865,-0.0865,-0.0865,-0.0864,-0.0864,-0.0864,-0.0867,0,0,-0.0864,-0.0864,0,0,0,0,0,0,0,0,-0.0871,-0.0871,-0.087,-0.087,-0.0869,-0.0868,-0.0869,-0.0869,-0.0866,-0.0867,-0.0865,-0.0865,-0.0865,-0.0865,-0.0865,-0.0867,-0.0867,-0.0864,-0.0864,-0.0864,-0.0864,0,0,0,0,0,0,0,-0.0871,-0.0871,-0.0871,-0.087,-0.0869,-0.0868,-0.0868,-0.0869,-0.0867,-0.0867,-0.0866,-0.0866,-0.0865,-0.0865,-0.0865,-0.0867,-0.0864,-0.0864,-0.0864,-0.0864,-0.087,-0.087,0,0,0,0,0,0,-0.0872,-0.0871,-0.0871,-0.0871,-0.087,-0.0868,-0.0868,-0.0868,-0.0867,-0.0866,-0.0866,-0.0866,-0.0865,-0.0865,-0.0865,-0.0868,-0.0864,-0.0864,-0.0864,-0.0869,-0.087,-0.087,0,0,0,0,0,0,-0.0872,-0.0872,-0.0871,-0.0871,-0.0871,-0.0869,-0.0869,-0.0868,-0.0868,-0.0866,-0.0866,-0.0867,-0.0865,-0.0865,-0.0866,-0.0868,-0.0864,-0.0864,-0.0869,-0.087,-0.087,-0.0874,0,0,0,0,0,0,-0.0872,-0.0872,-0.0873,-0.0871,-0.0871,-0.0872,-0.0869,-0.0868,-0.0868,-0.0868,-0.0867,-0.0866,-0.0865,-0.0866,-0.0866,-0.0868,-0.0864,-0.0869,-0.0869,-0.087,-0.0873,-0.0874,-0.0874,0,0,0,0,0,-0.0872,-0.0874,-0.0873,-0.0873,-0.0872,-0.0872,-0.0872,-0.087,-0.0868,-0.087,-0.0868,-0.0866,-0.0867,-0.0866,-0.0866,-0.0868,-0.0869,-0.0869,-0.087,-0.0873,-0.0874,-0.0874,0,0,0,0,0,0,-0.0877,-0.0874,-0.0872,-0.0875,-0.0874,-0.0872,-0.0873,-0.0871,-0.0871,-0.0871,-0.0868,-0.0868,-0.0869,-0.0869,-0.0867,-0.087,-0.0868,-0.0868,-0.0871,-0.0871,-0.0872,-0.0872,-0.0864,0,0,0,0,0,-0.0878,-0.0879,-0.0876,-0.0878,-0.0878,-0.0875,-0.0876,-0.0874,-0.0873,-0.0873,-0.0871,-0.0871,-0.0871,-0.0871,-0.0871,-0.0873,-0.0873,-0.0874,-0.0875,-0.0875,-0.0876,-0.0876,-0.0877,-0.0871,-0.0871,-0.0871,0,0,-0.0881,-0.088,-0.088,-0.0879,-0.0878,-0.0879,-0.0875,-0.0876,-0.0876,-0.0873,-0.0874,-0.0873,-0.0872,-0.0873,-0.0874,-0.0873,-0.0877,-0.0875,-0.0876,-0.0876,-0.0876,-0.0877,-0.0877,-0.0871,-0.0871,-0.0871,0,0,-0.0887,-0.0886,-0.0887,-0.0886,-0.0884,-0.0883,-0.0883,-0.0881,-0.088,-0.0881,-0.0878,-0.0878,-0.0879,-0.0878,-0.0877,-0.0881,-0.088,-0.0881,-0.0884,-0.0885,-0.0885,-0.0886,-0.0887,-0.0887,-0.0882,-0.0882,-0.0882,0,-0.0891,-0.0891,-0.0888,-0.0889,-0.0888,-0.0885,-0.0886,-0.0885,-0.0884,-0.0883,-0.0882,-0.0882,-0.0881,-0.0882,-0.0883,-0.0882,-0.0883,-0.0882,-0.0885,-0.0886,-0.0886,-0.0887,-0.0888,-0.0882,-0.0882,-0.0882,-0.0882,0,-0.0896,-0.0896,-0.0897,-0.0895,-0.0895,-0.0896,-0.0893,-0.0893,-0.0891,-0.0889,-0.089,-0.0888,-0.0888,-0.0888,-0.0886,-0.0888,-0.0888,-0.0886,-0.0884,-0.0887,-0.0888,-0.0888,-0.0882,-0.0882,-0.0882,-0.0882,0,0,-0.0905,-0.0901,-0.0902,-0.0901,-0.0898,-0.0898,-0.0899,-0.0898,-0.0897,-0.0896,-0.0897,-0.0896,-0.0894,-0.0894,-0.0892,-0.0892,-0.0895,-0.089,-0.089,-0.0891,-0.0897,-0.0898,-0.0899,-0.0894,-0.0894,-0.0894,-0.0897,0,-0.091,-0.0911,-0.0908,-0.0909,-0.0909,-0.0905,-0.0905,-0.0904,-0.0902,-0.0902,-0.09,-0.0899,-0.0897,-0.0896,-0.0897,-0.0895,-0.0896,-0.0894,-0.0894,-0.0894,-0.0894,-0.09,-0.0901,-0.0905,-0.0897,-0.0898,-0.0898,0,-0.0917,-0.0915,-0.0917,-0.0913,-0.0913,-0.0913,-0.0912,-0.0911,-0.0909,-0.0908,-0.0907,-0.0904,-0.0904,-0.0902,-0.0901,-0.09,-0.09,-0.0899,-0.0899,-0.0899,-0.0896,-0.09,-0.0906,-0.0906,-0.0898,-0.0898,-0.0898,0,-0.0923,-0.0922,-0.0922,-0.0921,-0.0918,-0.0918,-0.0916,-0.0914,-0.0913,-0.0912,-0.0911,-0.091,-0.0909,-0.0908,-0.0905,-0.0904,-0.0905,-0.0902,-0.0904,-0.0904,-0.0905,-0.0905,-0.091,-0.0904,-0.0904,-0.0904,-0.0904,0,-0.093,-0.0931,-0.0925,-0.0925,-0.0926,-0.0922,-0.0923,-0.0921,-0.0919,-0.0918,-0.0915,-0.0914,-0.0911,-0.091,-0.0907,-0.0907,-0.0907,-0.0906,-0.0905,-0.0906,-0.0906,-0.0906,-0.0906,-0.0904,-0.0904,-0.0904,-0.0904,0,-0.0938,-0.0934,-0.0934,-0.093,-0.0929,-0.093,-0.0926,-0.0926,-0.0924,-0.0923,-0.0923,-0.0919,-0.0918,-0.0914,-0.0913,-0.0911,-0.0912,-0.091,-0.0912,-0.0912,-0.0913,-0.0913,-0.0919,-0.092,-0.0913,-0.0913,-0.0913,0,-0.0942,-0.0942,-0.0938,-0.0937,-0.0936,-0.0935,-0.0934,-0.093,-0.0929,-0.0926,-0.0926,-0.0924,-0.0923,-0.0921,-0.0918,-0.0916,-0.0915,-0.0917,-0.0915,-0.0916,-0.0915,-0.0915,-0.0915,-0.0918,-0.0918,-0.0918,-0.0918,0,-0.095,-0.0948,-0.0946,-0.0944,-0.0943,-0.0941,-0.0939,-0.0939,-0.0934,-0.0933,-0.0931,-0.093,-0.0928,-0.0926,-0.0924,-0.0922,-0.0919,-0.0919,-0.0919,-0.092,-0.0921,-0.0921,-0.0914,-0.0919,-0.0919,-0.0919,-0.0919,-0.0919,-0.0956,-0.0956,-0.0953,-0.0951,-0.0949,-0.0947,-0.0946,-0.0943,-0.0942,-0.0939,-0.0937,-0.0935,-0.0932,-0.0929,-0.0927,-0.0926,-0.0925,-0.0925,-0.0925,-0.0925,-0.0926,-0.0921,-0.0926,-0.0926,-0.0926,-0.0926,-0.0926,0,-0.0964,-0.0961,-0.096,-0.0956,-0.0955,-0.0952,-0.0949,-0.0948,-0.0947,-0.0944,-0.0942,-0.094,-0.0938,-0.0935,-0.0933,-0.0932,-0.0931,-0.0932,-0.0932,-0.0931,-0.0927,-0.0927,-0.0933,-0.0933,-0.0933,-0.0933,-0.0933,-0.0933,-0.0968,-0.0967,-0.0965,-0.0963,-0.096,-0.0958,-0.0957,-0.0955,-0.0953,-0.095,-0.0948,-0.0946,-0.0943,-0.094,-0.0938,-0.0937,-0.0936,-0.0938,-0.0936,-0.0932,-0.0932,-0.0931,-0.0931,-0.0937,-0.0937,-0.0941,-0.0941,-0.0941]},{"header":{"parameterUnit":"m.s-1","parameterCategory":1,"la1":30.2991,"la2":30.254,"lo1":-89.0895,"lo2":-89.0444,"dy":0.0017,"dx":0.0017,"nx":28,"ny":28,"refTime":"2025-12-18T03:00:00:Z","depth":0,"parameterNumber":3,"parameterNumberName":"V-component_of_WINDS"},"data":[0,0,0,0,0,0,0,0,0,0,0,0,0,0,0,0,0,0,0,0,0,0,0,0,0,0,0,0,0,0,0,0,0,0,0,0,0,0,0,0,0,0,0,0,0,0,0,0,0,0,0,0,0,0,0,0,0,0,-4.0946,-4.0946,0,-4.0988,-4.0989,-4.0989,-4.0964,-4.0963,-4.0962,-4.0961,-4.1,-4.1002,-4.1004,0,0,0,0,0,0,0,0,0,0,0,0,0,-4.084,-4.0842,-4.0946,-4.0946,-4.0947,-4.0988,-4.0989,-4.0989,-4.0964,-4.0963,-4.0961,-4.096,-4.0999,-4.1001,-4.1004,0,0,0,0,0,0,0,0,0,0,0,0,0,-4.0884,-4.0843,-4.0945,-4.0939,-4.0939,-4.0988,-4.0989,-4.0989,-4.0965,-4.0963,-4.0961,-4.0959,-4.0998,-4.1001,-4.1004,-4.106,0,0,-4.1014,-4.1016,0,0,0,0,0,0,0,0,-4.0882,-4.0888,-4.094,-4.094,-4.094,-4.0969,-4.0966,-4.1013,-4.0965,-4.0955,-4.0961,-4.0959,-4.0991,-4.0994,-4.1006,-4.1062,-4.1064,-4.1015,-4.1017,-4.1018,-4.1019,0,0,0,0,0,0,0,-4.0879,-4.0886,-4.0962,-4.0941,-4.0941,-4.0934,-4.0938,-4.0974,-4.0982,-4.0956,-4.0954,-4.096,-4.099,-4.1003,-4.1007,-4.1064,-4.1014,-4.1017,-4.1019,-4.1021,-4.117,-4.1172,0,0,0,0,0,0,-4.0877,-4.0884,-4.0961,-4.0963,-4.0906,-4.0937,-4.0942,-4.0961,-4.0982,-4.0983,-4.0961,-4.0958,-4.0998,-4.1003,-4.1008,-4.1076,-4.1018,-4.1021,-4.1023,-4.1168,-4.117,-4.1172,0,0,0,0,0,0,-4.0875,-4.0884,-4.0959,-4.0923,-4.0932,-4.0941,-4.0963,-4.0963,-4.0976,-4.0986,-4.0987,-4.0973,-4.0997,-4.1004,-4.1048,-4.1077,-4.1022,-4.1025,-4.1165,-4.1169,-4.1171,-4.1212,0,0,0,0,0,0,-4.0872,-4.0883,-4.0905,-4.0924,-4.0935,-4.1,-4.0965,-4.0965,-4.0982,-4.0979,-4.0997,-4.0998,-4.0996,-4.1044,-4.1051,-4.1081,-4.1028,-4.1163,-4.1167,-4.117,-4.1208,-4.1216,-4.1223,0,0,0,0,0,-4.0868,-4.0913,-4.0906,-4.0916,-4.0962,-4.1001,-4.1007,-4.1005,-4.0985,-4.1006,-4.1013,-4.0998,-4.1073,-4.1048,-4.1057,-4.1088,-4.1161,-4.1166,-4.117,-4.1205,-4.1215,-4.1223,0,0,0,0,0,0,-4.0895,-4.0916,-4.0908,-4.0961,-4.098,-4.0997,-4.1024,-4.1015,-4.1038,-4.1034,-4.1029,-4.1034,-4.1081,-4.1088,-4.1061,-4.1144,-4.1114,-4.112,-4.1137,-4.1147,-4.1154,-4.1151,-4.103,0,0,0,0,0,-4.0908,-4.0939,-4.0955,-4.1,-4.101,-4.1016,-4.1033,-4.103,-4.1048,-4.1056,-4.1065,-4.1083,-4.1111,-4.1129,-4.1154,-4.1209,-4.1213,-4.1235,-4.1242,-4.1248,-4.1254,-4.1285,-4.1296,-4.1187,-4.1187,-4.1187,0,0,-4.0933,-4.0948,-4.0968,-4.1006,-4.102,-4.1052,-4.1022,-4.1057,-4.1081,-4.106,-4.1104,-4.1112,-4.1131,-4.1182,-4.1204,-4.1189,-4.1285,-4.1254,-4.1259,-4.1261,-4.1291,-4.1301,-4.1311,-4.1191,-4.119,-4.1189,0,0,-4.0997,-4.1011,-4.1051,-4.1067,-4.109,-4.1094,-4.1104,-4.1123,-4.1128,-4.1172,-4.1158,-4.1185,-4.1233,-4.1248,-4.1262,-4.1333,-4.1321,-4.1341,-4.138,-4.1411,-4.142,-4.1427,-4.1454,-4.1464,-4.1347,-4.1347,-4.1347,0,-4.1025,-4.1074,-4.1073,-4.111,-4.1127,-4.1112,-4.1154,-4.1168,-4.1197,-4.1209,-4.1193,-4.1254,-4.1265,-4.132,-4.1338,-4.1349,-4.136,-4.134,-4.1419,-4.1426,-4.1433,-4.1459,-4.1469,-4.135,-4.1349,-4.1349,-4.1349,0,-4.1109,-4.1143,-4.1173,-4.1205,-4.1226,-4.1264,-4.1268,-4.1289,-4.1284,-4.129,-4.1336,-4.135,-4.1379,-4.1392,-4.1386,-4.1446,-4.1437,-4.142,-4.1389,-4.1446,-4.1471,-4.148,-4.1353,-4.1352,-4.1352,-4.1351,0,0,-4.119,-4.1223,-4.1234,-4.1249,-4.1274,-4.13,-4.1338,-4.1369,-4.1388,-4.1408,-4.1441,-4.1482,-4.1467,-4.1483,-4.1479,-4.1506,-4.1564,-4.1486,-4.1486,-4.1501,-4.1633,-4.1647,-4.1659,-4.1556,-4.1558,-4.1559,-4.1632,0,-4.1256,-4.1325,-4.1326,-4.1389,-4.1422,-4.1409,-4.1442,-4.1461,-4.1467,-4.1495,-4.1501,-4.1532,-4.1509,-4.1518,-4.1544,-4.1552,-4.1591,-4.1546,-4.1586,-4.1587,-4.1583,-4.1671,-4.1686,-4.1754,-4.1641,-4.1643,-4.1644,0,-4.1343,-4.137,-4.1437,-4.146,-4.1473,-4.1504,-4.1533,-4.156,-4.1581,-4.1584,-4.1603,-4.1596,-4.1634,-4.1603,-4.1656,-4.1626,-4.1642,-4.1648,-4.1651,-4.1655,-4.162,-4.1679,-4.1775,-4.1786,-4.1659,-4.1658,-4.1656,0,-4.1398,-4.145,-4.1498,-4.1511,-4.1538,-4.156,-4.1572,-4.1592,-4.1611,-4.1636,-4.1649,-4.1677,-4.1693,-4.1715,-4.1716,-4.1692,-4.177,-4.1738,-4.1774,-4.1774,-4.1792,-4.1791,-4.1893,-4.18,-4.18,-4.1799,-4.1799,0,-4.1473,-4.1514,-4.1524,-4.1553,-4.16,-4.16,-4.1646,-4.1656,-4.1674,-4.1704,-4.1694,-4.1722,-4.1721,-4.175,-4.1751,-4.1796,-4.1803,-4.1806,-4.1806,-4.1808,-4.1808,-4.1819,-4.1815,-4.1802,-4.1801,-4.1801,-4.18,0,-4.1542,-4.1549,-4.1601,-4.1624,-4.163,-4.1664,-4.1683,-4.1711,-4.1717,-4.1756,-4.1765,-4.1774,-4.1808,-4.1811,-4.1849,-4.185,-4.1906,-4.1899,-4.1899,-4.1899,-4.1935,-4.1932,-4.2049,-4.2065,-4.196,-4.1961,-4.1962,0,-4.159,-4.1622,-4.1649,-4.1671,-4.1685,-4.1718,-4.1739,-4.174,-4.1761,-4.1789,-4.1814,-4.1848,-4.1875,-4.1929,-4.1939,-4.1969,-4.1964,-4.2003,-4.1968,-4.197,-4.1967,-4.1965,-4.1969,-4.201,-4.2011,-4.2012,-4.2013,0,-4.1675,-4.1678,-4.1709,-4.1742,-4.1767,-4.1793,-4.1816,-4.1834,-4.1838,-4.1863,-4.1899,-4.192,-4.1961,-4.1995,-4.2024,-4.2035,-4.2025,-4.2024,-4.2034,-4.2037,-4.2037,-4.2039,-4.1919,-4.2021,-4.202,-4.202,-4.2019,-4.2019,-4.1736,-4.1765,-4.179,-4.1825,-4.1844,-4.1867,-4.1896,-4.1906,-4.1937,-4.1972,-4.1971,-4.2011,-4.2032,-4.2071,-4.2085,-4.2116,-4.2103,-4.2117,-4.2121,-4.2125,-4.213,-4.2031,-4.2121,-4.2121,-4.212,-4.212,-4.212,0,-4.1822,-4.1838,-4.1871,-4.1906,-4.1934,-4.1924,-4.195,-4.1974,-4.201,-4.2032,-4.206,-4.2102,-4.2135,-4.2148,-4.218,-4.2202,-4.2199,-4.2211,-4.221,-4.2213,-4.2138,-4.2127,-4.2213,-4.2213,-4.2213,-4.2213,-4.2213,-4.2213,-4.187,-4.192,-4.1926,-4.1986,-4.2001,-4.2042,-4.2058,-4.2079,-4.2097,-4.2146,-4.2174,-4.2183,-4.2201,-4.2235,-4.2265,-4.2268,-4.2281,-4.2296,-4.2297,-4.2227,-4.2218,-4.2209,-4.2199,-4.2298,-4.2298,-4.2369,-4.2369,-4.237]}]]